Hot Springs Natl Park, AR

2:14 AM CST on February 27, 2017 (GMT -0600)
Hot Springs Memorial

Weather History for KHOT - October, 2013

Change the Weather History Date:

Monday, October 28, 2013

  Actual Average Record
Temperature  
Mean Temperature 63 °F -  
Max Temperature 69 °F 71 °F 87 °F (1977)
Min Temperature 57 °F 46 °F 31 °F (1993)
Degree Days  
Heating Degree Days 2    
Growing Degree Days 13 (Base 50)    
Moisture  
Dew Point 57 °F    
Average Humidity 88    
Maximum Humidity 100    
Minimum Humidity 65    
Precipitation  
Precipitation 0.00 in - - ()
Sea Level Pressure  
Sea Level Pressure 30.14 in    
Wind  
Wind Speed 2 mph (East)    
Max Wind Speed 7 mph    
Max Gust Speed -    
Visibility 9 miles    
Events      
Averages and records for this station are not official NWS values.
T = Trace of Precipitation, MM = Missing Value Source: NWS Daily Summary

Daily Weather History Graph

Daily Weather History Graph

Search for Another Location

Airport or City:

Trip Planner

Search our weather history database for the weather conditions in past years. The results will help you decide how hot, cold, wet, or windy it might be!

Date:

Astronomy

Oct. 28, 2013 Rise Set
Actual Time 7:29 AM CDT 6:22 PM CDT
Civil Twilight 7:03 AM CDT 6:48 PM CDT
Nautical Twilight 6:33 AM CDT 7:17 PM CDT
Astronomical Twilight 6:04 AM CDT 7:47 PM CDT
Moon 1:37 AM CDT (10/28) 2:51 PM CDT (10/28)
Length of Visible Light 11h 45m
Length of Day
10h 53m
Waning Crescent, 34% of the Moon is Illuminated
Oct 28
Waning Crescent
Nov 3
New
Nov 9
First Quarter
Nov 17
Full
Nov 25
Last Quarter

Hourly Weather History & Observations

Time (CDT) Temp. Dew Point Humidity Pressure Visibility Wind Dir Wind Speed Gust Speed Precip Events Conditions
12:53 AM 59.0 °F 57.0 °F 93% 30.06 in 10.0 mi Calm Calm - N/A   Mostly Cloudy
1:53 AM 57.9 °F 55.9 °F 93% 30.06 in 9.0 mi Calm Calm - N/A   Mostly Cloudy
2:13 AM 57.2 °F 55.4 °F 94% 30.08 in 7.0 mi Calm Calm - N/A   Mostly Cloudy
2:53 AM 59.0 °F 57.0 °F 93% 30.08 in 7.0 mi SSE 3.5 mph - N/A   Overcast
3:37 AM 57.2 °F 57.2 °F 100% 30.09 in 3.0 mi SE 3.5 mph - N/A   Overcast
3:53 AM 57.9 °F 57.0 °F 97% 30.08 in 7.0 mi Calm Calm - N/A   Overcast
4:07 AM 57.2 °F 57.2 °F 100% 30.09 in 9.0 mi Calm Calm - N/A   Overcast
4:53 AM 57.9 °F 55.9 °F 93% 30.09 in 10.0 mi Calm Calm - N/A   Overcast
5:53 AM 57.9 °F 55.9 °F 93% 30.11 in 10.0 mi Calm Calm - N/A   Overcast
6:04 AM 57.2 °F 55.4 °F 94% 30.12 in 10.0 mi Calm Calm - N/A   Overcast
6:53 AM 57.9 °F 55.9 °F 93% 30.13 in 9.0 mi Calm Calm - N/A   Overcast
7:53 AM 57.9 °F 55.9 °F 93% 30.15 in 7.0 mi Calm Calm - N/A   Overcast
8:53 AM 59.0 °F 57.0 °F 93% 30.17 in 9.0 mi East 4.6 mph - N/A   Overcast
9:53 AM 60.1 °F 55.9 °F 86% 30.18 in 10.0 mi East 3.5 mph - N/A   Overcast
10:53 AM 61.0 °F 55.9 °F 83% 30.19 in 10.0 mi East 3.5 mph - N/A   Overcast
11:53 AM 62.1 °F 55.9 °F 80% 30.20 in 10.0 mi ESE 5.8 mph - N/A   Overcast
12:53 PM 63.0 °F 55.9 °F 78% 30.19 in 10.0 mi Variable 3.5 mph - N/A   Overcast
1:53 PM 64.0 °F 57.0 °F 78% 30.16 in 10.0 mi East 4.6 mph - N/A   Overcast
2:53 PM 66.0 °F 57.0 °F 73% 30.15 in 10.0 mi Variable 6.9 mph - N/A   Mostly Cloudy
3:53 PM 69.1 °F 57.0 °F 65% 30.14 in 10.0 mi East 6.9 mph - N/A   Scattered Clouds
4:53 PM 68.0 °F 57.0 °F 68% 30.14 in 10.0 mi SE 6.9 mph - N/A   Clear
5:53 PM 66.0 °F 57.0 °F 73% 30.14 in 10.0 mi East 5.8 mph - N/A   Clear
6:53 PM 62.1 °F 57.0 °F 84% 30.14 in 10.0 mi East 5.8 mph - N/A   Clear
7:53 PM 59.0 °F 57.0 °F 93% 30.15 in 10.0 mi East 4.6 mph - N/A   Clear
8:14 PM 60.8 °F 57.2 °F 88% 30.17 in 10.0 mi East 4.6 mph - N/A   Mostly Cloudy
8:53 PM 60.1 °F 57.0 °F 90% 30.17 in 10.0 mi East 3.5 mph - N/A   Scattered Clouds
9:07 PM 60.8 °F 57.2 °F 88% 30.19 in 10.0 mi Calm Calm - N/A   Mostly Cloudy
9:41 PM 60.8 °F 57.2 °F 88% 30.19 in 10.0 mi East 3.5 mph - N/A   Overcast
9:53 PM 60.1 °F 57.0 °F 90% 30.18 in 10.0 mi East 5.8 mph - N/A   Mostly Cloudy
10:53 PM 60.1 °F 57.0 °F 90% 30.20 in 10.0 mi Calm Calm - N/A   Scattered Clouds
11:53 PM 59.0 °F 55.9 °F 90% 30.20 in 10.0 mi East 4.6 mph - N/A   Partly Cloudy